locationName,lineName,date,time,countIn,countOut
�����w�O,�w����,2022/9/1,0:00,0,0
�����w�O,�w����,2022/9/1,1:00,0,0
�����w�O,�w����,2022/9/1,2:00,0,0
�����w�O,�w����,2022/9/1,3:00,1,1
�����w�O,�w����,2022/9/1,4:00,1,0
�����w�O,�w����,2022/9/1,5:00,6,7
�����w�O,�w����,2022/9/1,6:00,73,36
�����w�O,�w����,2022/9/1,7:00,184,202
�����w�O,�w����,2022/9/1,8:00,98,138
�����w�O,�w����,2022/9/1,9:00,68,87
�����w�O,�w����,2022/9/1,10:00,111,133
�����w�O,�w����,2022/9/1,11:00,100,155
�����w�O,�w����,2022/9/1,12:00,115,108
�����w�O,�w����,2022/9/1,13:00,111,113
�����w�O,�w����,2022/9/1,14:00,115,126
�����w�O,�w����,2022/9/1,15:00,148,107
�����w�O,�w����,2022/9/1,16:00,180,121
�����w�O,�w����,2022/9/1,17:00,275,148
�����w�O,�w����,2022/9/1,18:00,257,130
�����w�O,�w����,2022/9/1,19:00,123,130
�����w�O,�w����,2022/9/1,20:00,60,50
�����w�O,�w����,2022/9/1,21:00,31,61
�����w�O,�w����,2022/9/1,22:00,20,26
�����w�O,�w����,2022/9/1,23:00,6,9
�����w�O,�w����,2022/9/2,0:00,0,0
�����w�O,�w����,2022/9/2,1:00,1,1
�����w�O,�w����,2022/9/2,2:00,0,0
�����w�O,�w����,2022/9/2,3:00,0,0
�����w�O,�w����,2022/9/2,4:00,3,0
�����w�O,�w����,2022/9/2,5:00,5,4
�����w�O,�w����,2022/9/2,6:00,80,40
�����w�O,�w����,2022/9/2,7:00,196,182
�����w�O,�w����,2022/9/2,8:00,111,181
�����w�O,�w����,2022/9/2,9:00,87,87
�����w�O,�w����,2022/9/2,10:00,121,194
�����w�O,�w����,2022/9/2,11:00,118,162
�����w�O,�w����,2022/9/2,12:00,120,157
�����w�O,�w����,2022/9/2,13:00,170,156
�����w�O,�w����,2022/9/2,14:00,197,168
�����w�O,�w����,2022/9/2,15:00,203,118
�����w�O,�w����,2022/9/2,16:00,250,174
�����w�O,�w����,2022/9/2,17:00,293,157
�����w�O,�w����,2022/9/2,18:00,266,162
�����w�O,�w����,2022/9/2,19:00,137,145
�����w�O,�w����,2022/9/2,20:00,64,75
�����w�O,�w����,2022/9/2,21:00,61,54
�����w�O,�w����,2022/9/2,22:00,20,41
�����w�O,�w����,2022/9/2,23:00,24,28
�����w�O,�w����,2022/9/3,0:00,7,10
�����w�O,�w����,2022/9/3,1:00,0,0
�����w�O,�w����,2022/9/3,2:00,0,0
�����w�O,�w����,2022/9/3,3:00,0,1
�����w�O,�w����,2022/9/3,4:00,3,5
�����w�O,�w����,2022/9/3,5:00,10,4
�����w�O,�w����,2022/9/3,6:00,59,32
�����w�O,�w����,2022/9/3,7:00,107,114
�����w�O,�w����,2022/9/3,8:00,112,169
�����w�O,�w����,2022/9/3,9:00,151,173
�����w�O,�w����,2022/9/3,10:00,152,284
�����w�O,�w����,2022/9/3,11:00,123,216
�����w�O,�w����,2022/9/3,12:00,212,242
�����w�O,�w����,2022/9/3,13:00,259,181
�����w�O,�w����,2022/9/3,14:00,252,201
�����w�O,�w����,2022/9/3,15:00,211,155
�����w�O,�w����,2022/9/3,16:00,223,166
�����w�O,�w����,2022/9/3,17:00,262,162
�����w�O,�w����,2022/9/3,18:00,182,144
�����w�O,�w����,2022/9/3,19:00,125,129
�����w�O,�w����,2022/9/3,20:00,84,50
�����w�O,�w����,2022/9/3,21:00,72,61
�����w�O,�w����,2022/9/3,22:00,41,39
�����w�O,�w����,2022/9/3,23:00,9,19
�����w�O,�w����,2022/9/4,0:00,1,0
�����w�O,�w����,2022/9/4,1:00,0,0
�����w�O,�w����,2022/9/4,2:00,0,0
�����w�O,�w����,2022/9/4,3:00,0,0
�����w�O,�w����,2022/9/4,4:00,0,0
�����w�O,�w����,2022/9/4,5:00,3,3
�����w�O,�w����,2022/9/4,6:00,60,30
�����w�O,�w����,2022/9/4,7:00,79,63
�����w�O,�w����,2022/9/4,8:00,99,127
�����w�O,�w����,2022/9/4,9:00,133,197
�����w�O,�w����,2022/9/4,10:00,190,278
�����w�O,�w����,2022/9/4,11:00,183,219
�����w�O,�w����,2022/9/4,12:00,225,226
�����w�O,�w����,2022/9/4,13:00,247,244
�����w�O,�w����,2022/9/4,14:00,286,254
�����w�O,�w����,2022/9/4,15:00,250,166
�����w�O,�w����,2022/9/4,16:00,269,193
�����w�O,�w����,2022/9/4,17:00,225,160
�����w�O,�w����,2022/9/4,18:00,159,110
�����w�O,�w����,2022/9/4,19:00,124,135
�����w�O,�w����,2022/9/4,20:00,68,59
�����w�O,�w����,2022/9/4,21:00,50,50
�����w�O,�w����,2022/9/4,22:00,22,25
�����w�O,�w����,2022/9/4,23:00,5,1
�����w�O,�w����,2022/9/5,0:00,7,12
�����w�O,�w����,2022/9/5,1:00,2,1
�����w�O,�w����,2022/9/5,2:00,0,0
�����w�O,�w����,2022/9/5,3:00,1,1
�����w�O,�w����,2022/9/5,4:00,2,0
�����w�O,�w����,2022/9/5,5:00,8,6
�����w�O,�w����,2022/9/5,6:00,89,37
�����w�O,�w����,2022/9/5,7:00,172,195
�����w�O,�w����,2022/9/5,8:00,108,182
�����w�O,�w����,2022/9/5,9:00,86,101
�����w�O,�w����,2022/9/5,10:00,145,185
�����w�O,�w����,2022/9/5,11:00,118,164
�����w�O,�w����,2022/9/5,12:00,162,188
�����w�O,�w����,2022/9/5,13:00,167,132
�����w�O,�w����,2022/9/5,14:00,167,157
�����w�O,�w����,2022/9/5,15:00,162,153
�����w�O,�w����,2022/9/5,16:00,219,136
�����w�O,�w����,2022/9/5,17:00,253,155
�����w�O,�w����,2022/9/5,18:00,217,136
�����w�O,�w����,2022/9/5,19:00,109,144
�����w�O,�w����,2022/9/5,20:00,49,52
�����w�O,�w����,2022/9/5,21:00,44,62
�����w�O,�w����,2022/9/5,22:00,24,28
�����w�O,�w����,2022/9/5,23:00,6,10
�����w�O,�w����,2022/9/6,0:00,1,2
�����w�O,�w����,2022/9/6,1:00,0,0
�����w�O,�w����,2022/9/6,2:00,0,0
�����w�O,�w����,2022/9/6,3:00,0,1
�����w�O,�w����,2022/9/6,4:00,2,0
�����w�O,�w����,2022/9/6,5:00,7,1
�����w�O,�w����,2022/9/6,6:00,80,53
�����w�O,�w����,2022/9/6,7:00,175,230
�����w�O,�w����,2022/9/6,8:00,78,166
�����w�O,�w����,2022/9/6,9:00,90,111
�����w�O,�w����,2022/9/6,10:00,114,121
�����w�O,�w����,2022/9/6,11:00,102,160
�����w�O,�w����,2022/9/6,12:00,98,135
�����w�O,�w����,2022/9/6,13:00,157,131
�����w�O,�w����,2022/9/6,14:00,118,125
�����w�O,�w����,2022/9/6,15:00,182,137
�����w�O,�w����,2022/9/6,16:00,193,146
�����w�O,�w����,2022/9/6,17:00,267,139
�����w�O,�w����,2022/9/6,18:00,232,180
�����w�O,�w����,2022/9/6,19:00,133,131
�����w�O,�w����,2022/9/6,20:00,57,57
�����w�O,�w����,2022/9/6,21:00,53,45
�����w�O,�w����,2022/9/6,22:00,24,25
�����w�O,�w����,2022/9/6,23:00,6,14
�����w�O,�w����,2022/9/7,0:00,2,0
�����w�O,�w����,2022/9/7,1:00,1,0
�����w�O,�w����,2022/9/7,2:00,0,0
�����w�O,�w����,2022/9/7,3:00,0,1
�����w�O,�w����,2022/9/7,4:00,2,0
�����w�O,�w����,2022/9/7,5:00,8,6
�����w�O,�w����,2022/9/7,6:00,89,48
�����w�O,�w����,2022/9/7,7:00,194,238
�����w�O,�w����,2022/9/7,8:00,140,214
�����w�O,�w����,2022/9/7,9:00,102,154
�����w�O,�w����,2022/9/7,10:00,119,211
�����w�O,�w����,2022/9/7,11:00,152,208
�����w�O,�w����,2022/9/7,12:00,136,163
�����w�O,�w����,2022/9/7,13:00,129,147
�����w�O,�w����,2022/9/7,14:00,170,134
�����w�O,�w����,2022/9/7,15:00,209,154
�����w�O,�w����,2022/9/7,16:00,235,130
�����w�O,�w����,2022/9/7,17:00,299,149
�����w�O,�w����,2022/9/7,18:00,239,148
�����w�O,�w����,2022/9/7,19:00,161,142
�����w�O,�w����,2022/9/7,20:00,83,65
�����w�O,�w����,2022/9/7,21:00,41,46
�����w�O,�w����,2022/9/7,22:00,26,24
�����w�O,�w����,2022/9/7,23:00,19,9
�����w�O,�w����,2022/9/8,0:00,1,0
�����w�O,�w����,2022/9/8,1:00,0,0
�����w�O,�w����,2022/9/8,2:00,0,0
�����w�O,�w����,2022/9/8,3:00,1,1
�����w�O,�w����,2022/9/8,4:00,3,1
�����w�O,�w����,2022/9/8,5:00,15,6
�����w�O,�w����,2022/9/8,6:00,70,39
�����w�O,�w����,2022/9/8,7:00,192,178
�����w�O,�w����,2022/9/8,8:00,109,194
�����w�O,�w����,2022/9/8,9:00,102,129
�����w�O,�w����,2022/9/8,10:00,141,189
�����w�O,�w����,2022/9/8,11:00,143,202
�����w�O,�w����,2022/9/8,12:00,134,171
�����w�O,�w����,2022/9/8,13:00,150,128
�����w�O,�w����,2022/9/8,14:00,187,145
�����w�O,�w����,2022/9/8,15:00,187,129
�����w�O,�w����,2022/9/8,16:00,255,112
�����w�O,�w����,2022/9/8,17:00,269,136
�����w�O,�w����,2022/9/8,18:00,222,141
�����w�O,�w����,2022/9/8,19:00,143,166
�����w�O,�w����,2022/9/8,20:00,78,62
�����w�O,�w����,2022/9/8,21:00,55,64
�����w�O,�w����,2022/9/8,22:00,15,33
�����w�O,�w����,2022/9/8,23:00,8,7
�����w�O,�w����,2022/9/9,0:00,0,1
�����w�O,�w����,2022/9/9,1:00,0,0
�����w�O,�w����,2022/9/9,2:00,0,0
�����w�O,�w����,2022/9/9,3:00,1,1
�����w�O,�w����,2022/9/9,4:00,2,0
�����w�O,�w����,2022/9/9,5:00,9,6
�����w�O,�w����,2022/9/9,6:00,81,45
�����w�O,�w����,2022/9/9,7:00,190,147
�����w�O,�w����,2022/9/9,8:00,105,169
�����w�O,�w����,2022/9/9,9:00,131,129
�����w�O,�w����,2022/9/9,10:00,124,221
�����w�O,�w����,2022/9/9,11:00,136,198
�����w�O,�w����,2022/9/9,12:00,184,232
�����w�O,�w����,2022/9/9,13:00,161,203
�����w�O,�w����,2022/9/9,14:00,191,201
�����w�O,�w����,2022/9/9,15:00,216,149
�����w�O,�w����,2022/9/9,16:00,242,151
�����w�O,�w����,2022/9/9,17:00,272,172
�����w�O,�w����,2022/9/9,18:00,220,142
�����w�O,�w����,2022/9/9,19:00,125,185
�����w�O,�w����,2022/9/9,20:00,74,64
�����w�O,�w����,2022/9/9,21:00,63,70
�����w�O,�w����,2022/9/9,22:00,33,37
�����w�O,�w����,2022/9/9,23:00,11,14
�����w�O,�w����,2022/9/10,0:00,1,3
�����w�O,�w����,2022/9/10,1:00,0,0
�����w�O,�w����,2022/9/10,2:00,0,0
�����w�O,�w����,2022/9/10,3:00,1,3
�����w�O,�w����,2022/9/10,4:00,1,2
�����w�O,�w����,2022/9/10,5:00,11,9
�����w�O,�w����,2022/9/10,6:00,37,16
�����w�O,�w����,2022/9/10,7:00,95,90
�����w�O,�w����,2022/9/10,8:00,118,184
�����w�O,�w����,2022/9/10,9:00,153,247
�����w�O,�w����,2022/9/10,10:00,183,302
�����w�O,�w����,2022/9/10,11:00,188,313
�����w�O,�w����,2022/9/10,12:00,237,269
�����w�O,�w����,2022/9/10,13:00,247,190
�����w�O,�w����,2022/9/10,14:00,259,262
�����w�O,�w����,2022/9/10,15:00,294,228
�����w�O,�w����,2022/9/10,16:00,254,196
�����w�O,�w����,2022/9/10,17:00,238,176
�����w�O,�w����,2022/9/10,18:00,192,155
�����w�O,�w����,2022/9/10,19:00,142,134
�����w�O,�w����,2022/9/10,20:00,100,97
�����w�O,�w����,2022/9/10,21:00,63,74
�����w�O,�w����,2022/9/10,22:00,47,36
�����w�O,�w����,2022/9/10,23:00,6,17
�����w�O,�w����,2022/9/11,0:00,1,2
�����w�O,�w����,2022/9/11,1:00,0,0
�����w�O,�w����,2022/9/11,2:00,1,0
�����w�O,�w����,2022/9/11,3:00,0,1
�����w�O,�w����,2022/9/11,4:00,4,2
�����w�O,�w����,2022/9/11,5:00,12,6
�����w�O,�w����,2022/9/11,6:00,43,22
�����w�O,�w����,2022/9/11,7:00,75,62
�����w�O,�w����,2022/9/11,8:00,108,152
�����w�O,�w����,2022/9/11,9:00,182,204
�����w�O,�w����,2022/9/11,10:00,208,304
�����w�O,�w����,2022/9/11,11:00,211,267
�����w�O,�w����,2022/9/11,12:00,237,250
�����w�O,�w����,2022/9/11,13:00,226,197
�����w�O,�w����,2022/9/11,14:00,313,267
�����w�O,�w����,2022/9/11,15:00,307,189
�����w�O,�w����,2022/9/11,16:00,299,176
�����w�O,�w����,2022/9/11,17:00,245,197
�����w�O,�w����,2022/9/11,18:00,206,152
�����w�O,�w����,2022/9/11,19:00,125,140
�����w�O,�w����,2022/9/11,20:00,81,73
�����w�O,�w����,2022/9/11,21:00,50,49
�����w�O,�w����,2022/9/11,22:00,34,25
�����w�O,�w����,2022/9/11,23:00,9,12
�����w�O,�w����,2022/9/12,0:00,1,1
�����w�O,�w����,2022/9/12,1:00,0,0
�����w�O,�w����,2022/9/12,2:00,0,0
�����w�O,�w����,2022/9/12,3:00,0,0
�����w�O,�w����,2022/9/12,4:00,0,0
�����w�O,�w����,2022/9/12,5:00,0,0
�����w�O,�w����,2022/9/12,6:00,0,0
�����w�O,�w����,2022/9/12,7:00,0,0
�����w�O,�w����,2022/9/12,8:00,0,0
�����w�O,�w����,2022/9/12,9:00,0,0
�����w�O,�w����,2022/9/12,10:00,0,0
�����w�O,�w����,2022/9/12,11:00,0,0
�����w�O,�w����,2022/9/12,12:00,141,162
�����w�O,�w����,2022/9/12,13:00,182,185
�����w�O,�w����,2022/9/12,14:00,224,198
�����w�O,�w����,2022/9/12,15:00,276,151
�����w�O,�w����,2022/9/12,16:00,290,184
�����w�O,�w����,2022/9/12,17:00,280,177
�����w�O,�w����,2022/9/12,18:00,280,144
�����w�O,�w����,2022/9/12,19:00,159,134
�����w�O,�w����,2022/9/12,20:00,66,65
�����w�O,�w����,2022/9/12,21:00,44,59
�����w�O,�w����,2022/9/12,22:00,21,37
�����w�O,�w����,2022/9/12,23:00,9,11
�����w�O,�w����,2022/9/13,0:00,0,1
�����w�O,�w����,2022/9/13,1:00,0,0
�����w�O,�w����,2022/9/13,2:00,0,0
�����w�O,�w����,2022/9/13,3:00,0,1
�����w�O,�w����,2022/9/13,4:00,1,1
�����w�O,�w����,2022/9/13,5:00,7,7
�����w�O,�w����,2022/9/13,6:00,72,33
�����w�O,�w����,2022/9/13,7:00,196,221
�����w�O,�w����,2022/9/13,8:00,138,210
�����w�O,�w����,2022/9/13,9:00,127,147
�����w�O,�w����,2022/9/13,10:00,142,194
�����w�O,�w����,2022/9/13,11:00,182,198
�����w�O,�w����,2022/9/13,12:00,151,175
�����w�O,�w����,2022/9/13,13:00,145,118
�����w�O,�w����,2022/9/13,14:00,125,154
�����w�O,�w����,2022/9/13,15:00,173,141
�����w�O,�w����,2022/9/13,16:00,251,153
�����w�O,�w����,2022/9/13,17:00,274,153
�����w�O,�w����,2022/9/13,18:00,274,132
�����w�O,�w����,2022/9/13,19:00,138,139
�����w�O,�w����,2022/9/13,20:00,71,63
�����w�O,�w����,2022/9/13,21:00,44,60
�����w�O,�w����,2022/9/13,22:00,28,35
�����w�O,�w����,2022/9/13,23:00,7,11
�����w�O,�w����,2022/9/14,0:00,3,0
�����w�O,�w����,2022/9/14,1:00,0,0
�����w�O,�w����,2022/9/14,2:00,0,0
�����w�O,�w����,2022/9/14,3:00,1,1
�����w�O,�w����,2022/9/14,4:00,0,0
�����w�O,�w����,2022/9/14,5:00,9,6
�����w�O,�w����,2022/9/14,6:00,82,46
�����w�O,�w����,2022/9/14,7:00,181,202
�����w�O,�w����,2022/9/14,8:00,119,166
�����w�O,�w����,2022/9/14,9:00,113,158
�����w�O,�w����,2022/9/14,10:00,116,178
�����w�O,�w����,2022/9/14,11:00,120,182
�����w�O,�w����,2022/9/14,12:00,112,149
�����w�O,�w����,2022/9/14,13:00,139,152
�����w�O,�w����,2022/9/14,14:00,165,157
�����w�O,�w����,2022/9/14,15:00,197,141
�����w�O,�w����,2022/9/14,16:00,270,167
�����w�O,�w����,2022/9/14,17:00,282,154
�����w�O,�w����,2022/9/14,18:00,230,129
�����w�O,�w����,2022/9/14,19:00,144,148
�����w�O,�w����,2022/9/14,20:00,75,58
�����w�O,�w����,2022/9/14,21:00,51,54
�����w�O,�w����,2022/9/14,22:00,29,48
�����w�O,�w����,2022/9/14,23:00,6,14
�����w�O,�w����,2022/9/15,0:00,1,3
�����w�O,�w����,2022/9/15,1:00,0,0
�����w�O,�w����,2022/9/15,2:00,0,0
�����w�O,�w����,2022/9/15,3:00,0,1
�����w�O,�w����,2022/9/15,4:00,2,0
�����w�O,�w����,2022/9/15,5:00,6,6
�����w�O,�w����,2022/9/15,6:00,74,43
�����w�O,�w����,2022/9/15,7:00,190,212
�����w�O,�w����,2022/9/15,8:00,106,157
�����w�O,�w����,2022/9/15,9:00,124,132
�����w�O,�w����,2022/9/15,10:00,114,152
�����w�O,�w����,2022/9/15,11:00,113,190
�����w�O,�w����,2022/9/15,12:00,122,142
�����w�O,�w����,2022/9/15,13:00,125,118
�����w�O,�w����,2022/9/15,14:00,157,137
�����w�O,�w����,2022/9/15,15:00,212,178
�����w�O,�w����,2022/9/15,16:00,278,201
�����w�O,�w����,2022/9/15,17:00,279,146
�����w�O,�w����,2022/9/15,18:00,253,158
�����w�O,�w����,2022/9/15,19:00,164,144
�����w�O,�w����,2022/9/15,20:00,81,77
�����w�O,�w����,2022/9/15,21:00,51,67
�����w�O,�w����,2022/9/15,22:00,18,35
�����w�O,�w����,2022/9/15,23:00,10,13
�����w�O,�w����,2022/9/16,0:00,0,0
�����w�O,�w����,2022/9/16,1:00,0,0
�����w�O,�w����,2022/9/16,2:00,0,0
�����w�O,�w����,2022/9/16,3:00,0,1
�����w�O,�w����,2022/9/16,4:00,0,0
�����w�O,�w����,2022/9/16,5:00,10,7
�����w�O,�w����,2022/9/16,6:00,77,41
�����w�O,�w����,2022/9/16,7:00,195,214
�����w�O,�w����,2022/9/16,8:00,155,225
�����w�O,�w����,2022/9/16,9:00,105,157
�����w�O,�w����,2022/9/16,10:00,151,215
�����w�O,�w����,2022/9/16,11:00,156,235
�����w�O,�w����,2022/9/16,12:00,159,197
�����w�O,�w����,2022/9/16,13:00,189,185
�����w�O,�w����,2022/9/16,14:00,181,185
�����w�O,�w����,2022/9/16,15:00,225,191
�����w�O,�w����,2022/9/16,16:00,268,180
�����w�O,�w����,2022/9/16,17:00,280,188
�����w�O,�w����,2022/9/16,18:00,271,179
�����w�O,�w����,2022/9/16,19:00,176,160
�����w�O,�w����,2022/9/16,20:00,77,66
�����w�O,�w����,2022/9/16,21:00,81,88
�����w�O,�w����,2022/9/16,22:00,36,40
�����w�O,�w����,2022/9/16,23:00,8,18
�����w�O,�w����,2022/9/17,0:00,4,1
�����w�O,�w����,2022/9/17,1:00,1,2
�����w�O,�w����,2022/9/17,2:00,0,0
�����w�O,�w����,2022/9/17,3:00,1,1
�����w�O,�w����,2022/9/17,4:00,2,2
�����w�O,�w����,2022/9/17,5:00,15,4
�����w�O,�w����,2022/9/17,6:00,48,23
�����w�O,�w����,2022/9/17,7:00,103,112
�����w�O,�w����,2022/9/17,8:00,116,196
�����w�O,�w����,2022/9/17,9:00,160,231
�����w�O,�w����,2022/9/17,10:00,143,273
�����w�O,�w����,2022/9/17,11:00,165,323
�����w�O,�w����,2022/9/17,12:00,218,286
�����w�O,�w����,2022/9/17,13:00,279,238
�����w�O,�w����,2022/9/17,14:00,307,287
�����w�O,�w����,2022/9/17,15:00,259,179
�����w�O,�w����,2022/9/17,16:00,312,251
�����w�O,�w����,2022/9/17,17:00,280,182
�����w�O,�w����,2022/9/17,18:00,288,188
�����w�O,�w����,2022/9/17,19:00,204,168
�����w�O,�w����,2022/9/17,20:00,91,88
�����w�O,�w����,2022/9/17,21:00,73,67
�����w�O,�w����,2022/9/17,22:00,46,42
�����w�O,�w����,2022/9/17,23:00,16,12
�����w�O,�w����,2022/9/18,0:00,3,17
�����w�O,�w����,2022/9/18,1:00,0,0
�����w�O,�w����,2022/9/18,2:00,0,1
�����w�O,�w����,2022/9/18,3:00,0,1
�����w�O,�w����,2022/9/18,4:00,0,0
�����w�O,�w����,2022/9/18,5:00,4,2
�����w�O,�w����,2022/9/18,6:00,42,31
�����w�O,�w����,2022/9/18,7:00,60,57
�����w�O,�w����,2022/9/18,8:00,90,99
�����w�O,�w����,2022/9/18,9:00,138,192
�����w�O,�w����,2022/9/18,10:00,160,225
�����w�O,�w����,2022/9/18,11:00,176,243
�����w�O,�w����,2022/9/18,12:00,210,218
�����w�O,�w����,2022/9/18,13:00,261,229
�����w�O,�w����,2022/9/18,14:00,286,235
�����w�O,�w����,2022/9/18,15:00,226,156
�����w�O,�w����,2022/9/18,16:00,252,170
�����w�O,�w����,2022/9/18,17:00,139,142
�����w�O,�w����,2022/9/18,18:00,97,71
�����w�O,�w����,2022/9/18,19:00,53,70
�����w�O,�w����,2022/9/18,20:00,35,41
�����w�O,�w����,2022/9/18,21:00,28,73
�����w�O,�w����,2022/9/18,22:00,19,27
�����w�O,�w����,2022/9/18,23:00,3,13
�����w�O,�w����,2022/9/19,0:00,0,3
�����w�O,�w����,2022/9/19,1:00,2,1
�����w�O,�w����,2022/9/19,2:00,0,2
�����w�O,�w����,2022/9/19,3:00,0,0
�����w�O,�w����,2022/9/19,4:00,0,0
�����w�O,�w����,2022/9/19,5:00,13,7
�����w�O,�w����,2022/9/19,6:00,10,5
�����w�O,�w����,2022/9/19,7:00,24,17
�����w�O,�w����,2022/9/19,8:00,51,57
�����w�O,�w����,2022/9/19,9:00,34,27
�����w�O,�w����,2022/9/19,10:00,59,72
�����w�O,�w����,2022/9/19,11:00,33,36
�����w�O,�w����,2022/9/19,12:00,46,40
�����w�O,�w����,2022/9/19,13:00,43,40
�����w�O,�w����,2022/9/19,14:00,17,51
�����w�O,�w����,2022/9/19,15:00,19,32
�����w�O,�w����,2022/9/19,16:00,13,28
�����w�O,�w����,2022/9/19,17:00,23,30
�����w�O,�w����,2022/9/19,18:00,13,9
�����w�O,�w����,2022/9/19,19:00,6,12
�����w�O,�w����,2022/9/19,20:00,0,1
�����w�O,�w����,2022/9/19,21:00,3,1
�����w�O,�w����,2022/9/19,22:00,0,0
�����w�O,�w����,2022/9/19,23:00,0,0
�����w�O,�w����,2022/9/20,0:00,4,4
�����w�O,�w����,2022/9/20,1:00,5,3
�����w�O,�w����,2022/9/20,2:00,1,0
�����w�O,�w����,2022/9/20,3:00,0,0
�����w�O,�w����,2022/9/20,4:00,2,1
�����w�O,�w����,2022/9/20,5:00,8,7
�����w�O,�w����,2022/9/20,6:00,60,44
�����w�O,�w����,2022/9/20,7:00,164,173
�����w�O,�w����,2022/9/20,8:00,118,184
�����w�O,�w����,2022/9/20,9:00,97,108
�����w�O,�w����,2022/9/20,10:00,106,123
�����w�O,�w����,2022/9/20,11:00,96,143
�����w�O,�w����,2022/9/20,12:00,130,143
�����w�O,�w����,2022/9/20,13:00,119,145
�����w�O,�w����,2022/9/20,14:00,113,136
�����w�O,�w����,2022/9/20,15:00,144,109
�����w�O,�w����,2022/9/20,16:00,202,127
�����w�O,�w����,2022/9/20,17:00,257,118
�����w�O,�w����,2022/9/20,18:00,195,146
�����w�O,�w����,2022/9/20,19:00,113,111
�����w�O,�w����,2022/9/20,20:00,63,61
�����w�O,�w����,2022/9/20,21:00,35,48
�����w�O,�w����,2022/9/20,22:00,23,30
�����w�O,�w����,2022/9/20,23:00,16,16
�����w�O,�w����,2022/9/21,0:00,9,4
�����w�O,�w����,2022/9/21,1:00,2,8
�����w�O,�w����,2022/9/21,2:00,1,0
�����w�O,�w����,2022/9/21,3:00,0,0
�����w�O,�w����,2022/9/21,4:00,0,0
�����w�O,�w����,2022/9/21,5:00,12,9
�����w�O,�w����,2022/9/21,6:00,89,46
�����w�O,�w����,2022/9/21,7:00,232,226
�����w�O,�w����,2022/9/21,8:00,136,220
�����w�O,�w����,2022/9/21,9:00,129,166
�����w�O,�w����,2022/9/21,10:00,130,247
�����w�O,�w����,2022/9/21,11:00,122,202
�����w�O,�w����,2022/9/21,12:00,136,171
�����w�O,�w����,2022/9/21,13:00,131,148
�����w�O,�w����,2022/9/21,14:00,172,196
�����w�O,�w����,2022/9/21,15:00,221,154
�����w�O,�w����,2022/9/21,16:00,227,159
�����w�O,�w����,2022/9/21,17:00,275,191
�����w�O,�w����,2022/9/21,18:00,208,149
�����w�O,�w����,2022/9/21,19:00,134,165
�����w�O,�w����,2022/9/21,20:00,102,75
�����w�O,�w����,2022/9/21,21:00,62,42
�����w�O,�w����,2022/9/21,22:00,33,27
�����w�O,�w����,2022/9/21,23:00,17,16
�����w�O,�w����,2022/9/22,0:00,2,0
�����w�O,�w����,2022/9/22,1:00,0,0
�����w�O,�w����,2022/9/22,2:00,1,0
�����w�O,�w����,2022/9/22,3:00,1,2
�����w�O,�w����,2022/9/22,4:00,0,0
�����w�O,�w����,2022/9/22,5:00,12,4
�����w�O,�w����,2022/9/22,6:00,90,48
�����w�O,�w����,2022/9/22,7:00,187,187
�����w�O,�w����,2022/9/22,8:00,113,216
�����w�O,�w����,2022/9/22,9:00,117,201
�����w�O,�w����,2022/9/22,10:00,106,185
�����w�O,�w����,2022/9/22,11:00,150,208
�����w�O,�w����,2022/9/22,12:00,155,184
�����w�O,�w����,2022/9/22,13:00,159,156
�����w�O,�w����,2022/9/22,14:00,139,150
�����w�O,�w����,2022/9/22,15:00,221,159
�����w�O,�w����,2022/9/22,16:00,310,228
�����w�O,�w����,2022/9/22,17:00,354,274
�����w�O,�w����,2022/9/22,18:00,295,168
�����w�O,�w����,2022/9/22,19:00,160,166
�����w�O,�w����,2022/9/22,20:00,97,97
�����w�O,�w����,2022/9/22,21:00,64,49
�����w�O,�w����,2022/9/22,22:00,54,44
�����w�O,�w����,2022/9/22,23:00,21,20
�����w�O,�w����,2022/9/23,0:00,1,15
�����w�O,�w����,2022/9/23,1:00,1,0
�����w�O,�w����,2022/9/23,2:00,0,0
�����w�O,�w����,2022/9/23,3:00,1,1
�����w�O,�w����,2022/9/23,4:00,1,0
�����w�O,�w����,2022/9/23,5:00,9,5
�����w�O,�w����,2022/9/23,6:00,50,30
�����w�O,�w����,2022/9/23,7:00,87,122
�����w�O,�w����,2022/9/23,8:00,182,284
�����w�O,�w����,2022/9/23,9:00,191,323
�����w�O,�w����,2022/9/23,10:00,227,498
�����w�O,�w����,2022/9/23,11:00,222,453
�����w�O,�w����,2022/9/23,12:00,264,422
�����w�O,�w����,2022/9/23,13:00,378,274
�����w�O,�w����,2022/9/23,14:00,378,328
�����w�O,�w����,2022/9/23,15:00,384,255
�����w�O,�w����,2022/9/23,16:00,388,225
�����w�O,�w����,2022/9/23,17:00,351,275
�����w�O,�w����,2022/9/23,18:00,283,205
�����w�O,�w����,2022/9/23,19:00,183,156
�����w�O,�w����,2022/9/23,20:00,136,121
�����w�O,�w����,2022/9/23,21:00,85,68
�����w�O,�w����,2022/9/23,22:00,38,59
�����w�O,�w����,2022/9/23,23:00,22,29
�����w�O,�w����,2022/9/24,0:00,2,6
�����w�O,�w����,2022/9/24,1:00,1,1
�����w�O,�w����,2022/9/24,2:00,0,0
�����w�O,�w����,2022/9/24,3:00,0,1
�����w�O,�w����,2022/9/24,4:00,2,1
�����w�O,�w����,2022/9/24,5:00,11,8
�����w�O,�w����,2022/9/24,6:00,45,35
�����w�O,�w����,2022/9/24,7:00,93,116
�����w�O,�w����,2022/9/24,8:00,108,220
�����w�O,�w����,2022/9/24,9:00,204,322
�����w�O,�w����,2022/9/24,10:00,234,442
�����w�O,�w����,2022/9/24,11:00,215,398
�����w�O,�w����,2022/9/24,12:00,344,417
�����w�O,�w����,2022/9/24,13:00,344,263
�����w�O,�w����,2022/9/24,14:00,361,341
�����w�O,�w����,2022/9/24,15:00,341,278
�����w�O,�w����,2022/9/24,16:00,443,324
�����w�O,�w����,2022/9/24,17:00,461,310
�����w�O,�w����,2022/9/24,18:00,366,219
�����w�O,�w����,2022/9/24,19:00,247,234
�����w�O,�w����,2022/9/24,20:00,186,125
�����w�O,�w����,2022/9/24,21:00,97,84
�����w�O,�w����,2022/9/24,22:00,45,51
�����w�O,�w����,2022/9/24,23:00,24,16
�����w�O,�w����,2022/9/25,0:00,6,29
�����w�O,�w����,2022/9/25,1:00,0,0
�����w�O,�w����,2022/9/25,2:00,0,0
�����w�O,�w����,2022/9/25,3:00,0,1
�����w�O,�w����,2022/9/25,4:00,4,0
�����w�O,�w����,2022/9/25,5:00,9,5
�����w�O,�w����,2022/9/25,6:00,37,24
�����w�O,�w����,2022/9/25,7:00,75,66
�����w�O,�w����,2022/9/25,8:00,122,124
�����w�O,�w����,2022/9/25,9:00,198,338
�����w�O,�w����,2022/9/25,10:00,229,409
�����w�O,�w����,2022/9/25,11:00,250,353
�����w�O,�w����,2022/9/25,12:00,306,277
�����w�O,�w����,2022/9/25,13:00,362,263
�����w�O,�w����,2022/9/25,14:00,352,316
�����w�O,�w����,2022/9/25,15:00,354,285
�����w�O,�w����,2022/9/25,16:00,406,309
�����w�O,�w����,2022/9/25,17:00,295,211
�����w�O,�w����,2022/9/25,18:00,247,166
�����w�O,�w����,2022/9/25,19:00,124,157
�����w�O,�w����,2022/9/25,20:00,94,100
�����w�O,�w����,2022/9/25,21:00,48,62
�����w�O,�w����,2022/9/25,22:00,9,22
�����w�O,�w����,2022/9/25,23:00,5,7
�����w�O,�w����,2022/9/26,0:00,0,0
�����w�O,�w����,2022/9/26,1:00,0,0
�����w�O,�w����,2022/9/26,2:00,0,0
�����w�O,�w����,2022/9/26,3:00,0,3
�����w�O,�w����,2022/9/26,4:00,1,0
�����w�O,�w����,2022/9/26,5:00,10,11
�����w�O,�w����,2022/9/26,6:00,88,41
�����w�O,�w����,2022/9/26,7:00,174,192
�����w�O,�w����,2022/9/26,8:00,130,213
�����w�O,�w����,2022/9/26,9:00,112,151
�����w�O,�w����,2022/9/26,10:00,135,165
�����w�O,�w����,2022/9/26,11:00,165,212
�����w�O,�w����,2022/9/26,12:00,185,206
�����w�O,�w����,2022/9/26,13:00,172,136
�����w�O,�w����,2022/9/26,14:00,158,161
�����w�O,�w����,2022/9/26,15:00,221,152
�����w�O,�w����,2022/9/26,16:00,256,151
�����w�O,�w����,2022/9/26,17:00,258,175
�����w�O,�w����,2022/9/26,18:00,261,160